• In Uzbekistan
  • List of Countries
  • For 7 days
  • Water Temperature
  • Weather Map
  • Weather Widgets
  • user-avatar
    Login

    Hourly Weather Cajamarca

    Today, 26 February, Wednesday

    Time Temperature Precipitation Wind Pressure Humidity
    00:00 +12°C° 0 mm 1 mps 543 mmHg 92%
    01:00 +11°C° 0 mm 1 mps 543 mmHg 90%
    02:00 +11°C° 0 mm 1 mps 543 mmHg 89%
    03:00 +11°C° 0 mm 1 mps 542 mmHg 89%
    04:00 +11°C° 0 mm 1 mps 542 mmHg 88%
    05:00 +11°C° 0 mm 1 mps 542 mmHg 86%
    06:00 +11°C° 0 mm 1 mps 543 mmHg 85%
    07:00 +12°C° 0 mm 1 mps 543 mmHg 84%
    08:00 +14°C° 0 mm 1 mps 545 mmHg 76%
    09:00 +16°C° 0 mm 1 mps 546 mmHg 68%
    10:00 +19°C° 0 mm 1 mps 548 mmHg 60%
    11:00 +19°C° 0.2 mm 2 mps 547 mmHg 60%
    12:00 +19°C° 0.2 mm 2 mps 547 mmHg 60%
    13:00 +20°C° 0.2 mm 2 mps 547 mmHg 60%
    14:00 +19°C° 0.9 mm 3 mps 546 mmHg 67%
    15:00 +18°C° 0.9 mm 3 mps 545 mmHg 73%
    16:00 +17°C° 0.9 mm 3 mps 544 mmHg 79%
    17:00 +16°C° 0.7 mm 2 mps 544 mmHg 84%
    18:00 +15°C° 0.7 mm 2 mps 543 mmHg 89%
    19:00 +14°C° 0.7 mm 1 mps 543 mmHg 94%
    20:00 +13°C° 0.2 mm 1 mps 544 mmHg 94%
    21:00 +13°C° 0.2 mm 1 mps 544 mmHg 94%
    22:00 +13°C° 0.2 mm 1 mps 544 mmHg 95%
    23:00 +12°C° 0.2 mm 1 mps 544 mmHg 94%

    Tomorrow, 27 February, Thursday

    Time Temperature Precipitation Wind Pressure Humidity
    00:00 +12°C° 0.2 mm 1 mps 544 mmHg 93%
    01:00 +12°C° 0.2 mm 1 mps 543 mmHg 93%
    02:00 +12°C° 0.3 mm 1 mps 543 mmHg 92%
    03:00 +11°C° 0.3 mm 1 mps 543 mmHg 91%
    04:00 +11°C° 0.3 mm 1 mps 542 mmHg 91%
    05:00 +11°C° 0 mm 1 mps 543 mmHg 88%
    06:00 +10°C° 0 mm 0 mps 543 mmHg 86%
    07:00 +10°C° 0 mm 0 mps 543 mmHg 84%
    08:00 +13°C° 0 mm 1 mps 545 mmHg 78%
    09:00 +15°C° 0 mm 1 mps 547 mmHg 71%
    10:00 +18°C° 0 mm 1 mps 548 mmHg 64%
    11:00 +18°C° 0.4 mm 1 mps 548 mmHg 68%
    12:00 +18°C° 0.4 mm 1 mps 547 mmHg 71%
    13:00 +17°C° 0.4 mm 2 mps 547 mmHg 74%
    14:00 +16°C° 1 mm 2 mps 546 mmHg 80%
    15:00 +15°C° 1 mm 1 mps 545 mmHg 85%
    16:00 +15°C° 1 mm 1 mps 544 mmHg 91%
    17:00 +14°C° 0.9 mm 1 mps 544 mmHg 93%
    18:00 +14°C° 0.9 mm 1 mps 544 mmHg 94%
    19:00 +14°C° 0.9 mm 1 mps 544 mmHg 96%
    20:00 +12°C° 0.4 mm 0 mps 544 mmHg 96%
    21:00 +12°C° 0.4 mm 0 mps 545 mmHg 95%
    22:00 +12°C° 0.4 mm 0 mps 545 mmHg 95%
    23:00 +12°C° 0 mm 0 mps 545 mmHg 94%

    Day after tomorrow, 28 February, Friday

    Time Temperature Precipitation Wind Pressure Humidity
    00:00 +12°C° 0 mm 0 mps 545 mmHg 93%
    01:00 +12°C° 0 mm 0 mps 544 mmHg 93%
    02:00 +12°C° 0 mm 0 mps 544 mmHg 94%
    03:00 +11°C° 0 mm 0 mps 543 mmHg 95%
    04:00 +11°C° 0 mm 0 mps 543 mmHg 95%
    05:00 +11°C° 0 mm 0 mps 543 mmHg 94%
    06:00 +11°C° 0 mm 0 mps 544 mmHg 93%
    07:00 +11°C° 0 mm 0 mps 544 mmHg 92%
    08:00 +13°C° 0 mm 0 mps 545 mmHg 85%
    09:00 +16°C° 0 mm 1 mps 546 mmHg 78%
    10:00 +18°C° 0 mm 1 mps 547 mmHg 70%
    11:00 +18°C° 0.5 mm 1 mps 547 mmHg 72%
    12:00 +18°C° 0.5 mm 1 mps 546 mmHg 74%
    13:00 +18°C° 0.5 mm 2 mps 546 mmHg 75%
    14:00 +17°C° 1.1 mm 2 mps 545 mmHg 80%
    15:00 +16°C° 1.1 mm 2 mps 544 mmHg 84%
    16:00 +15°C° 1.1 mm 2 mps 543 mmHg 89%
    17:00 +15°C° 0.7 mm 2 mps 543 mmHg 91%
    18:00 +14°C° 0.7 mm 1 mps 543 mmHg 94%
    19:00 +14°C° 0.7 mm 1 mps 543 mmHg 96%
    20:00 +14°C° 0.5 mm 1 mps 544 mmHg 96%
    21:00 +13°C° 0.5 mm 1 mps 544 mmHg 95%
    22:00 +12°C° 0.5 mm 0 mps 545 mmHg 95%
    23:00 +12°C° 0.8 mm 0 mps 545 mmHg 95%

    29 February, Saturday

    Time Temperature Precipitation Wind Pressure Humidity
    00:00 +12°C° 0.8 mm 0 mps 544 mmHg 94%
    01:00 +12°C° 0.8 mm 0 mps 544 mmHg 94%
    02:00 +12°C° 0.8 mm 0 mps 544 mmHg 94%
    03:00 +12°C° 0.8 mm 0 mps 544 mmHg 94%
    04:00 +11°C° 0.8 mm 0 mps 543 mmHg 94%
    05:00 +13°C° 0.5 mm 1 mps 544 mmHg 93%
    06:00 +13°C° 0.5 mm 1 mps 544 mmHg 92%
    07:00 +13°C° 0.5 mm 1 mps 545 mmHg 92%
    08:00 +14°C° 0.2 mm 1 mps 545 mmHg 87%
    09:00 +15°C° 0.2 mm 1 mps 546 mmHg 83%
    10:00 +16°C° 0.2 mm 1 mps 547 mmHg 78%
    11:00 +18°C° 0.6 mm 1 mps 547 mmHg 76%
    12:00 +19°C° 0.6 mm 1 mps 547 mmHg 74%
    13:00 +19°C° 0.6 mm 2 mps 547 mmHg 73%
    14:00 +18°C° 1.5 mm 2 mps 546 mmHg 78%
    15:00 +17°C° 1.5 mm 2 mps 545 mmHg 83%
    16:00 +16°C° 1.5 mm 2 mps 544 mmHg 88%
    17:00 +15°C° 2.8 mm 1 mps 544 mmHg 91%
    18:00 +15°C° 2.8 mm 1 mps 544 mmHg 94%
    19:00 +14°C° 2.8 mm 1 mps 544 mmHg 96%
    20:00 +14°C° 1.4 mm 1 mps 544 mmHg 95%
    21:00 +14°C° 1.4 mm 1 mps 545 mmHg 94%
    22:00 +14°C° 1.4 mm 1 mps 545 mmHg 93%
    23:00 +13°C° 0.9 mm 1 mps 545 mmHg 93%

    1 March, Sunday

    Time Temperature Precipitation Wind Pressure Humidity
    00:00 +13°C° 0.9 mm 1 mps 544 mmHg 92%
    01:00 +13°C° 0.9 mm 1 mps 544 mmHg 92%
    02:00 +13°C° 1 mm 1 mps 544 mmHg 92%
    03:00 +13°C° 1 mm 1 mps 544 mmHg 92%
    04:00 +13°C° 1 mm 1 mps 544 mmHg 92%
    05:00 +13°C° 0.9 mm 1 mps 544 mmHg 92%
    06:00 +13°C° 0.9 mm 1 mps 544 mmHg 92%
    07:00 +13°C° 0.9 mm 1 mps 545 mmHg 91%
    08:00 +14°C° 0.3 mm 1 mps 546 mmHg 85%
    09:00 +16°C° 0.3 mm 1 mps 547 mmHg 79%
    10:00 +18°C° 0.3 mm 1 mps 548 mmHg 72%
    11:00 +18°C° 0.6 mm 1 mps 547 mmHg 73%
    12:00 +19°C° 0.6 mm 1 mps 547 mmHg 73%
    13:00 +19°C° 0.6 mm 1 mps 547 mmHg 74%
    14:00 +18°C° 1.1 mm 1 mps 546 mmHg 77%
    15:00 +18°C° 1.1 mm 1 mps 545 mmHg 81%
    16:00 +16°C° 1.1 mm 1 mps 544 mmHg 84%
    17:00 +16°C° 0.5 mm 1 mps 544 mmHg 88%
    18:00 +15°C° 0.5 mm 1 mps 544 mmHg 92%
    19:00 +13°C° 0.5 mm 0 mps 544 mmHg 95%
    20:00 +14°C° 0.1 mm 1 mps 544 mmHg 94%
    21:00 +14°C° 0.1 mm 1 mps 544 mmHg 93%
    22:00 +13°C° 0.1 mm 1 mps 544 mmHg 92%
    23:00 +13°C° 0.2 mm 1 mps 544 mmHg 91%

    2 March, Monday

    Time Temperature Precipitation Wind Pressure Humidity
    00:00 +13°C° 0.2 mm 1 mps 544 mmHg 91%
    01:00 +12°C° 0.2 mm 1 mps 544 mmHg 91%
    02:00 +12°C° 0 mm 1 mps 543 mmHg 91%
    03:00 +12°C° 0 mm 1 mps 543 mmHg 91%
    04:00 +12°C° 0 mm 1 mps 543 mmHg 91%
    05:00 +12°C° 0 mm 1 mps 543 mmHg 91%
    06:00 +13°C° 0 mm 1 mps 544 mmHg 91%
    07:00 +13°C° 0 mm 1 mps 544 mmHg 91%
    08:00 +15°C° 0 mm 1 mps 545 mmHg 83%
    09:00 +17°C° 0 mm 2 mps 546 mmHg 76%
    10:00 +18°C° 0 mm 2 mps 547 mmHg 69%
    11:00 +19°C° 1.2 mm 2 mps 547 mmHg 70%
    12:00 +19°C° 1.2 mm 2 mps 547 mmHg 72%
    13:00 +19°C° 1.2 mm 2 mps 546 mmHg 73%
    14:00 +18°C° 1.8 mm 2 mps 545 mmHg 78%
    15:00 +17°C° 1.8 mm 2 mps 544 mmHg 83%
    16:00 +16°C° 1.8 mm 1 mps 544 mmHg 88%
    17:00 +16°C° 0.7 mm 1 mps 543 mmHg 91%
    18:00 +15°C° 0.7 mm 1 mps 543 mmHg 94%
    19:00 +14°C° 0.7 mm 1 mps 543 mmHg 96%
    20:00 +14°C° 0.3 mm 1 mps 544 mmHg 96%
    21:00 +14°C° 0.3 mm 1 mps 544 mmHg 96%
    22:00 +14°C° 0.3 mm 0 mps 545 mmHg 96%
    23:00 +13°C° 0.9 mm 0 mps 544 mmHg 96%
    Show more